This is the latest recevied weather packets stored in our database for station/object E7HQ-1. If no packets are shown the sender has not sent any weather packets the latest 10 day(s).
| Time | Temp. | Humidity | Pressure | Rain* | Wind** | Luminosity | Snow |
|---|---|---|---|---|---|---|---|
| 1778192150 | 11.11° C | 71% | 1027.6 hPa | - | - | - | - |
| 1778191249 | 11.11° C | 71% | 1027.4 hPa | - | - | - | - |
| 1778190349 | 11.11° C | 71% | 1027.6 hPa | - | - | - | - |
| 1778189449 | 11.11° C | 72% | 1027.6 hPa | - | - | - | - |
| 1778188549 | 11.11° C | 71% | 1027.4 hPa | - | - | - | - |
| 1778187649 | 11.11° C | 71% | 1027.5 hPa | - | - | - | - |
| 1778186748 | 11.67° C | 70% | 1027.5 hPa | - | - | - | - |
| 1778185854 | 11.67° C | 69% | 1027.5 hPa | - | - | - | - |
| 1778184953 | 11.67° C | 68% | 1027.5 hPa | - | - | - | - |
| 1778184053 | 11.67° C | 67% | 1027.7 hPa | - | - | - | - |
| 1778183153 | 11.11° C | 67% | 1027.5 hPa | - | - | - | - |
| 1778182253 | 11.67° C | 68% | 1027.4 hPa | - | - | - | - |
| 1778181353 | 11.67° C | 70% | 1027.2 hPa | - | - | - | - |
| 1778180452 | 11.67° C | 75% | 1027.1 hPa | - | - | - | - |
| 1778179552 | 11.67° C | 74% | 1026.9 hPa | - | - | - | - |
| 1778178652 | 11.67° C | 72% | 1026.6 hPa | - | - | - | - |
| 1778177752 | 11.67° C | 71% | 1026.4 hPa | - | - | - | - |
| 1778176851 | 11.67° C | 68% | 1026.4 hPa | - | - | - | - |
| 1778175951 | 11.67° C | 66% | 1026.4 hPa | - | - | - | - |
| 1778175051 | 11.67° C | 67% | 1026.3 hPa | - | - | - | - |
| 1778174151 | 11.67° C | 68% | 1026.3 hPa | - | - | - | - |
| 1778173251 | 11.67° C | 69% | 1026.3 hPa | - | - | - | - |
| 1778172350 | 11.67° C | 68% | 1026.5 hPa | - | - | - | - |
| 1778171450 | 11.67° C | 73% | 1026.6 hPa | - | - | - | - |
| 1778170550 | 11.67° C | 77% | 1026.7 hPa | - | - | - | - |
* Rain since midnight (hover to see other rain measurements)
** Current wind speed in m/s (hover to see current wind gust speed)